CRK640 RJFF-VHHH

Flight info

Callsign CRK640
Flight time N/A
Altitude 34000
Route YAMGA VEMRA Y506 HKC A1 OSTAR/N0464F360 A1 ELATO V522 ABBEY
Aircraft A320/M-SDE3FGHIRWY/LB1

Departure

Time N/A
Airport Fukuoka Airport (RJFF)

Arrival

Time 2026-04-30 11:55
Airport Hong Kong International Airport (VHHH)
Time Latitude Longitude Altitude Speed Heading
2026-04-30 10:48 24.22240 120.34418 36052 ft 448 kts 229°
2026-04-30 10:48 24.17956 120.29445 36047 ft 448 kts 228°
2026-04-30 10:49 24.13635 120.24509 36044 ft 449 kts 228°
2026-04-30 10:49 24.09293 120.19608 36042 ft 448 kts 227°
2026-04-30 10:50 24.04943 120.14715 36044 ft 448 kts 228°
2026-04-30 10:50 24.00605 120.09819 36037 ft 448 kts 228°
2026-04-30 10:51 23.96261 120.04914 36042 ft 448 kts 228°
2026-04-30 10:51 23.91921 120.00020 36046 ft 448 kts 227°
2026-04-30 10:52 23.87569 119.95137 36040 ft 448 kts 227°
2026-04-30 10:52 23.83219 119.90251 36042 ft 448 kts 228°
2026-04-30 10:53 23.78872 119.85365 36045 ft 448 kts 227°
2026-04-30 10:53 23.74521 119.80487 36046 ft 448 kts 227°
2026-04-30 10:54 23.70164 119.75606 36051 ft 448 kts 227°
2026-04-30 10:54 23.65809 119.70729 36058 ft 448 kts 227°
2026-04-30 10:55 23.61482 119.65893 36061 ft 448 kts 227°
2026-04-30 10:55 23.57700 119.60543 36059 ft 445 kts 239°
2026-04-30 10:56 23.54409 119.54831 36059 ft 445 kts 239°
2026-04-30 10:56 23.51096 119.49116 36052 ft 446 kts 239°
2026-04-30 10:57 23.47779 119.43410 36046 ft 446 kts 238°
2026-04-30 10:57 23.44458 119.37702 36042 ft 446 kts 238°
2026-04-30 10:58 23.41131 119.31988 36039 ft 447 kts 238°
2026-04-30 10:58 23.37801 119.26273 36034 ft 447 kts 238°
2026-04-30 10:59 23.34470 119.20562 36035 ft 447 kts 238°
2026-04-30 10:59 23.31135 119.14845 36039 ft 448 kts 238°
2026-04-30 11:00 23.27792 119.09129 36041 ft 448 kts 238°
2026-04-30 11:00 23.24448 119.03397 36045 ft 449 kts 238°
2026-04-30 11:01 23.21093 118.97661 36051 ft 449 kts 238°
2026-04-30 11:01 23.17728 118.91933 36064 ft 450 kts 238°
2026-04-30 11:02 23.14358 118.86199 36063 ft 450 kts 238°
2026-04-30 11:02 23.10988 118.80462 36066 ft 450 kts 238°
2026-04-30 11:03 23.07619 118.74733 36043 ft 449 kts 238°
2026-04-30 11:04 23.02580 118.66167 36047 ft 448 kts 238°
2026-04-30 11:04 22.99224 118.60476 36046 ft 448 kts 238°
2026-04-30 11:05 22.95886 118.54825 36049 ft 447 kts 238°
2026-04-30 11:05 22.92519 118.49154 36048 ft 447 kts 238°
2026-04-30 11:06 22.89142 118.43482 36049 ft 447 kts 238°
2026-04-30 11:06 22.85773 118.37825 36053 ft 447 kts 238°
2026-04-30 11:07 22.82391 118.32156 36057 ft 447 kts 238°
2026-04-30 11:07 22.79014 118.26491 36057 ft 447 kts 238°
2026-04-30 11:08 22.75640 118.20829 36058 ft 447 kts 238°
2026-04-30 11:08 22.72279 118.15206 36061 ft 447 kts 238°
2026-04-30 11:09 22.68889 118.09557 36075 ft 447 kts 238°
2026-04-30 11:09 22.65504 118.03909 36063 ft 446 kts 238°
2026-04-30 11:10 22.62127 117.98279 36062 ft 446 kts 238°
2026-04-30 11:10 22.58741 117.92642 36061 ft 446 kts 238°
2026-04-30 11:11 22.55399 117.87014 36070 ft 447 kts 239°
2026-04-30 11:11 22.52047 117.81350 36059 ft 447 kts 239°
2026-04-30 11:12 22.49228 117.76609 36065 ft 447 kts 239°
2026-04-30 11:12 22.45875 117.70997 36064 ft 447 kts 239°
2026-04-30 11:13 22.42500 117.65343 36068 ft 447 kts 239°
2026-04-30 11:13 22.39127 117.59688 36067 ft 448 kts 239°
2026-04-30 11:14 22.35756 117.54032 36064 ft 447 kts 240°
2026-04-30 11:14 22.33532 117.47804 36054 ft 444 kts 260°
2026-04-30 11:15 22.33190 117.41196 36059 ft 445 kts 268°
2026-04-30 11:15 22.33078 117.34503 36069 ft 445 kts 268°
2026-04-30 11:16 22.32954 117.27816 36061 ft 446 kts 268°
2026-04-30 11:16 22.32820 117.21117 36061 ft 446 kts 268°
2026-04-30 11:17 22.32686 117.14416 36064 ft 447 kts 268°
2026-04-30 11:17 22.32556 117.07698 36066 ft 447 kts 268°
2026-04-30 11:18 22.32423 117.00997 36073 ft 447 kts 268°
2026-04-30 11:18 22.32217 116.90917 36066 ft 447 kts 268°
2026-04-30 11:19 22.32082 116.84199 36066 ft 447 kts 268°
2026-04-30 11:19 22.31945 116.77534 36077 ft 447 kts 268°
2026-04-30 11:20 22.31801 116.70813 36076 ft 447 kts 268°
2026-04-30 11:20 22.31646 116.64100 36063 ft 447 kts 268°
2026-04-30 11:21 22.31488 116.57400 36070 ft 446 kts 268°
2026-04-30 11:21 22.31338 116.50705 36072 ft 446 kts 268°
2026-04-30 11:22 22.31188 116.43990 36055 ft 446 kts 268°
2026-04-30 11:22 22.31030 116.37300 36041 ft 446 kts 268°
2026-04-30 11:23 22.30870 116.30616 36045 ft 445 kts 268°
2026-04-30 11:24 22.30632 116.20636 36047 ft 445 kts 268°
2026-04-30 11:24 22.30460 116.13917 36047 ft 445 kts 268°
2026-04-30 11:25 22.30205 116.03933 36040 ft 444 kts 268°
2026-04-30 11:25 22.30036 115.97324 35210 ft 436 kts 268°
2026-04-30 11:26 22.29864 115.90781 33275 ft 440 kts 268°
2026-04-30 11:26 22.29774 115.87459 32163 ft 444 kts 268°
2026-04-30 11:26 22.29687 115.84124 31204 ft 445 kts 268°
2026-04-30 11:27 22.29599 115.80773 30182 ft 447 kts 268°
2026-04-30 11:27 22.29507 115.77409 28980 ft 450 kts 268°
2026-04-30 11:27 22.29411 115.74030 27911 ft 449 kts 268°
2026-04-30 11:27 22.29314 115.70650 26754 ft 450 kts 268°
2026-04-30 11:28 22.29122 115.63914 25061 ft 453 kts 268°
2026-04-30 11:28 22.29030 115.60501 24442 ft 456 kts 268°
2026-04-30 11:28 22.28938 115.57076 23781 ft 456 kts 268°
2026-04-30 11:29 22.28846 115.53659 23073 ft 453 kts 268°
2026-04-30 11:29 22.28755 115.50277 22445 ft 449 kts 268°
2026-04-30 11:29 22.28569 115.43599 21181 ft 441 kts 268°
2026-04-30 11:30 22.28377 115.37040 19942 ft 433 kts 267°
2026-04-30 11:30 22.28281 115.33805 19331 ft 429 kts 268°
2026-04-30 11:30 22.28186 115.30603 18723 ft 425 kts 268°
2026-04-30 11:31 22.28090 115.27418 18089 ft 422 kts 268°
2026-04-30 11:31 22.27993 115.24271 17471 ft 418 kts 268°
2026-04-30 11:31 22.27896 115.21137 16880 ft 415 kts 268°
2026-04-30 11:31 22.27799 115.18042 16294 ft 411 kts 268°
2026-04-30 11:32 22.27634 115.14980 15840 ft 407 kts 261°
2026-04-30 11:32 22.26842 115.12049 15609 ft 407 kts 248°
2026-04-30 11:32 22.25715 115.09284 15369 ft 407 kts 247°
2026-04-30 11:33 22.23409 115.03725 14905 ft 405 kts 246°
2026-04-30 11:33 22.22252 115.00961 14648 ft 404 kts 247°
2026-04-30 11:33 22.21090 114.98189 14413 ft 406 kts 247°
2026-04-30 11:33 22.19925 114.95406 14193 ft 405 kts 247°
2026-04-30 11:34 22.18766 114.92635 13912 ft 403 kts 247°
2026-04-30 11:34 22.17623 114.89893 13264 ft 398 kts 247°
2026-04-30 11:34 22.16501 114.87203 12646 ft 392 kts 247°
2026-04-30 11:34 22.15386 114.84527 12036 ft 387 kts 247°
2026-04-30 11:35 22.14304 114.81927 11467 ft 381 kts 247°
2026-04-30 11:35 22.13239 114.79374 11309 ft 364 kts 247°
2026-04-30 11:35 22.12221 114.76942 11187 ft 347 kts 247°
2026-04-30 11:35 22.11249 114.74628 11069 ft 332 kts 247°
2026-04-30 11:36 22.10316 114.72410 10949 ft 317 kts 247°
2026-04-30 11:36 22.09423 114.70280 10834 ft 305 kts 247°
2026-04-30 11:36 22.08569 114.68234 10714 ft 293 kts 247°
2026-04-30 11:36 22.07745 114.66260 10534 ft 284 kts 247°
2026-04-30 11:37 22.06938 114.64337 10407 ft 280 kts 247°
2026-04-30 11:37 22.06137 114.62429 10315 ft 280 kts 247°
2026-04-30 11:37 22.05335 114.60519 10196 ft 279 kts 247°
2026-04-30 11:37 22.04536 114.58617 10076 ft 278 kts 247°
2026-04-30 11:38 22.03732 114.56705 9775 ft 280 kts 247°
2026-04-30 11:38 22.02940 114.54816 9353 ft 280 kts 247°
2026-04-30 11:38 22.02141 114.52913 8966 ft 278 kts 248°
2026-04-30 11:38 22.01387 114.51021 8874 ft 274 kts 249°
2026-04-30 11:39 22.00662 114.49119 8817 ft 275 kts 249°
2026-04-30 11:39 21.99944 114.47211 8690 ft 274 kts 249°
2026-04-30 11:39 21.99227 114.45309 8606 ft 274 kts 249°
2026-04-30 11:39 21.98506 114.43410 8558 ft 274 kts 249°
2026-04-30 11:40 21.97780 114.41508 8498 ft 274 kts 249°
2026-04-30 11:40 21.97056 114.39612 8436 ft 274 kts 249°
2026-04-30 11:40 21.96329 114.37713 8374 ft 274 kts 249°
2026-04-30 11:40 21.95601 114.35815 8318 ft 274 kts 249°
2026-04-30 11:41 21.94873 114.33921 8261 ft 274 kts 249°
2026-04-30 11:41 21.94145 114.32026 8198 ft 274 kts 249°
2026-04-30 11:41 21.93418 114.30129 8133 ft 273 kts 249°
2026-04-30 11:41 21.92692 114.28238 8054 ft 273 kts 249°
2026-04-30 11:42 21.91964 114.26346 7983 ft 273 kts 249°
2026-04-30 11:42 21.91284 114.24580 7914 ft 273 kts 249°
2026-04-30 11:42 21.90557 114.22692 7842 ft 273 kts 249°
2026-04-30 11:42 21.89959 114.20762 7763 ft 272 kts 261°
2026-04-30 11:43 21.89928 114.18734 7692 ft 271 kts 278°
2026-04-30 11:43 21.90476 114.16828 7625 ft 272 kts 296°
2026-04-30 11:43 21.91398 114.15045 7554 ft 272 kts 298°
2026-04-30 11:43 21.92328 114.13256 7480 ft 272 kts 298°
2026-04-30 11:44 21.93248 114.11477 7404 ft 272 kts 298°
2026-04-30 11:44 21.94168 114.09699 7336 ft 272 kts 298°
2026-04-30 11:44 21.95089 114.07917 7255 ft 272 kts 298°
2026-04-30 11:44 21.96008 114.06139 7185 ft 272 kts 298°
2026-04-30 11:45 21.96928 114.04359 7110 ft 271 kts 298°
2026-04-30 11:45 21.97840 114.02590 7039 ft 271 kts 298°
2026-04-30 11:45 21.98755 114.00814 6968 ft 271 kts 298°
2026-04-30 11:45 21.99670 113.99038 6891 ft 271 kts 298°
2026-04-30 11:46 22.00574 113.97284 6821 ft 271 kts 298°
2026-04-30 11:46 22.01485 113.95513 6753 ft 270 kts 298°
2026-04-30 11:46 22.02398 113.93741 6668 ft 270 kts 298°
2026-04-30 11:46 22.03311 113.91971 6596 ft 270 kts 298°
2026-04-30 11:47 22.04226 113.90202 6519 ft 270 kts 298°
2026-04-30 11:47 22.05137 113.88433 6451 ft 270 kts 298°
2026-04-30 11:47 22.06047 113.86664 6367 ft 270 kts 298°
2026-04-30 11:47 22.06958 113.84893 6305 ft 270 kts 298°
2026-04-30 11:48 22.07868 113.83125 6228 ft 269 kts 298°
2026-04-30 11:48 22.08779 113.81358 6152 ft 269 kts 298°
2026-04-30 11:48 22.09688 113.79592 6082 ft 269 kts 299°
2026-04-30 11:48 22.10804 113.77978 6011 ft 270 kts 315°
2026-04-30 11:49 22.12313 113.76760 5564 ft 273 kts 332°
2026-04-30 11:49 22.14029 113.75904 4907 ft 270 kts 335°
2026-04-30 11:49 22.15732 113.75070 4230 ft 267 kts 336°
2026-04-30 11:49 22.17368 113.74260 3951 ft 248 kts 336°
2026-04-30 11:50 22.18868 113.73513 3820 ft 227 kts 336°
2026-04-30 11:50 22.20237 113.72830 3718 ft 207 kts 336°
2026-04-30 11:50 22.21504 113.72197 3624 ft 196 kts 336°
2026-04-30 11:50 22.22759 113.71739 3531 ft 188 kts 358°
2026-04-30 11:51 22.24012 113.71960 3415 ft 187 kts 26°
2026-04-30 11:51 22.25050 113.72790 3150 ft 186 kts 41°
2026-04-30 11:51 22.26031 113.73715 2894 ft 186 kts 41°
2026-04-30 11:51 22.27012 113.74624 2653 ft 185 kts 40°
2026-04-30 11:52 22.27930 113.75583 2411 ft 184 kts 54°
2026-04-30 11:52 22.28475 113.76822 2182 ft 184 kts 70°
2026-04-30 11:52 22.28893 113.78118 1970 ft 183 kts 69°
2026-04-30 11:52 22.29307 113.79398 1704 ft 175 kts 70°
2026-04-30 11:53 22.29695 113.80601 1467 ft 164 kts 69°
2026-04-30 11:53 22.30055 113.81713 1269 ft 151 kts 70°
2026-04-30 11:53 22.30394 113.82763 1080 ft 145 kts 71°
2026-04-30 11:53 22.30729 113.83796 914 ft 145 kts 70°
2026-04-30 11:54 22.31062 113.84831 749 ft 147 kts 70°
2026-04-30 11:54 22.31398 113.85881 536 ft 148 kts 70°
2026-04-30 11:54 22.31744 113.86934 328 ft 148 kts 70°
2026-04-30 11:54 22.32085 113.87993 120 ft 152 kts 67°
2026-04-30 11:55 22.32435 113.89066 38 ft 139 kts 70°
2026-04-30 11:55 22.32689 113.89861 38 ft 87 kts 71°
2026-04-30 11:55 22.32826 113.90298 36 ft 31 kts 76°
2026-04-30 11:55 22.32809 113.90508 34 ft 18 kts 99°
2026-04-30 11:56 22.32749 113.90553 37 ft 11 kts 166°